Year,Month,Day,Hour,Minute,Value (Times are PST for temperature in C)
2018,09,19,00,00,9.30
2018,09,19,00,01,9.30
2018,09,19,00,02,9.30
2018,09,19,00,03,9.30
2018,09,19,00,04,9.30
2018,09,19,00,05,9.30
2018,09,19,00,06,9.30
2018,09,19,00,07,9.20
2018,09,19,00,08,9.20
2018,09,19,00,09,9.20
2018,09,19,00,10,9.20
2018,09,19,00,11,9.20
2018,09,19,00,12,9.20
2018,09,19,00,13,9.20
2018,09,19,00,14,9.20
2018,09,19,00,15,9.20
2018,09,19,00,16,9.20
2018,09,19,00,17,9.20
2018,09,19,00,18,9.20
2018,09,19,00,19,9.20
2018,09,19,00,20,9.20
2018,09,19,00,21,9.20
2018,09,19,00,22,9.20
2018,09,19,00,23,9.20
2018,09,19,00,24,9.20
2018,09,19,00,25,9.20
2018,09,19,00,26,9.20
2018,09,19,00,27,9.20
2018,09,19,00,28,9.20
2018,09,19,00,29,9.20
2018,09,19,00,30,9.20
2018,09,19,00,31,9.20
2018,09,19,00,32,9.20
2018,09,19,00,33,9.20
2018,09,19,00,34,9.20
2018,09,19,00,35,9.20
2018,09,19,00,36,9.20
2018,09,19,00,37,9.20
2018,09,19,00,38,9.20
2018,09,19,00,39,9.20
2018,09,19,00,40,9.20
2018,09,19,00,41,9.20
2018,09,19,00,42,9.20
2018,09,19,00,43,9.20
2018,09,19,00,44,9.20
2018,09,19,00,45,9.20
2018,09,19,00,46,9.20
2018,09,19,00,47,9.20
2018,09,19,00,48,9.10
2018,09,19,00,49,9.10
2018,09,19,00,50,9.10
2018,09,19,00,51,9.10
2018,09,19,00,52,9.10
2018,09,19,00,53,9.10
2018,09,19,00,54,9.10
2018,09,19,00,55,9.10
2018,09,19,00,56,9.10
2018,09,19,00,57,9.10
2018,09,19,00,58,9.10
2018,09,19,00,59,9.00
2018,09,19,01,00,9.00
2018,09,19,01,01,9.00
2018,09,19,01,02,9.00
2018,09,19,01,03,9.00
2018,09,19,01,04,9.00
2018,09,19,01,05,8.90
2018,09,19,01,06,8.90
2018,09,19,01,07,8.90
2018,09,19,01,08,8.90
2018,09,19,01,09,8.90
2018,09,19,01,10,8.90
2018,09,19,01,11,8.90
2018,09,19,01,12,8.90
2018,09,19,01,13,8.90
2018,09,19,01,14,8.90
2018,09,19,01,15,8.90
2018,09,19,01,16,8.90
2018,09,19,01,17,8.90
2018,09,19,01,18,8.90
2018,09,19,01,19,8.90
2018,09,19,01,20,8.90
2018,09,19,01,21,8.90
2018,09,19,01,22,8.90
2018,09,19,01,23,8.90
2018,09,19,01,24,8.90
2018,09,19,01,25,8.90
2018,09,19,01,26,8.90
2018,09,19,01,27,8.90
2018,09,19,01,28,8.90
2018,09,19,01,29,8.90
2018,09,19,01,30,8.90
2018,09,19,01,31,8.90
2018,09,19,01,32,8.90
2018,09,19,01,33,8.90
2018,09,19,01,34,8.90
2018,09,19,01,35,8.90
2018,09,19,01,36,8.90
2018,09,19,01,37,8.90
2018,09,19,01,38,8.90
2018,09,19,01,39,8.90
2018,09,19,01,40,8.90
2018,09,19,01,41,8.90
2018,09,19,01,42,8.90
2018,09,19,01,43,8.90
2018,09,19,01,44,8.80
2018,09,19,01,45,8.80
2018,09,19,01,46,8.80
2018,09,19,01,47,8.80
2018,09,19,01,48,8.80
2018,09,19,01,49,8.80
2018,09,19,01,50,8.80
2018,09,19,01,51,8.80
2018,09,19,01,52,8.80
2018,09,19,01,53,8.80
2018,09,19,01,54,8.80
2018,09,19,01,55,8.80
2018,09,19,01,56,8.80
2018,09,19,01,57,8.80
2018,09,19,01,58,8.80
2018,09,19,01,59,8.80
2018,09,19,02,00,8.80
2018,09,19,02,01,8.80
2018,09,19,02,02,8.80
2018,09,19,02,03,8.80
2018,09,19,02,04,8.80
2018,09,19,02,05,8.80
2018,09,19,02,06,8.80
2018,09,19,02,07,8.80
2018,09,19,02,08,8.80
2018,09,19,02,09,8.80
2018,09,19,02,10,8.80
2018,09,19,02,11,8.80
2018,09,19,02,12,8.80
2018,09,19,02,13,8.80
2018,09,19,02,14,8.70
2018,09,19,02,15,8.70
2018,09,19,02,16,8.70
2018,09,19,02,17,8.70
2018,09,19,02,18,8.70
2018,09,19,02,19,8.70
2018,09,19,02,20,8.70
2018,09,19,02,21,8.70
2018,09,19,02,22,8.70
2018,09,19,02,23,8.70
2018,09,19,02,24,8.70
2018,09,19,02,25,8.70
2018,09,19,02,26,8.70
2018,09,19,02,27,8.70
2018,09,19,02,28,8.70
2018,09,19,02,29,8.70
2018,09,19,02,30,8.70
2018,09,19,02,31,8.60
2018,09,19,02,32,8.60
2018,09,19,02,33,8.60
2018,09,19,02,34,8.60
2018,09,19,02,35,8.60
2018,09,19,02,36,8.60
2018,09,19,02,37,8.60
2018,09,19,02,38,8.60
2018,09,19,02,39,8.60
2018,09,19,02,40,8.60
2018,09,19,02,41,8.60
2018,09,19,02,42,8.60
2018,09,19,02,43,8.60
2018,09,19,02,44,8.60
2018,09,19,02,45,8.60
2018,09,19,02,46,8.60
2018,09,19,02,47,8.60
2018,09,19,02,48,8.60
2018,09,19,02,49,8.60
2018,09,19,02,50,8.60
2018,09,19,02,51,8.60
2018,09,19,02,52,8.60
2018,09,19,02,53,8.60
2018,09,19,02,54,8.60
2018,09,19,02,55,8.70
2018,09,19,02,56,8.70
2018,09,19,02,57,8.60
2018,09,19,02,58,8.70
2018,09,19,02,59,8.70
2018,09,19,03,00,8.70
2018,09,19,03,01,8.70
2018,09,19,03,02,8.60
2018,09,19,03,03,8.70
2018,09,19,03,04,8.70
2018,09,19,03,05,8.70
2018,09,19,03,06,8.70
2018,09,19,03,07,8.60
2018,09,19,03,08,8.60
2018,09,19,03,09,8.60
2018,09,19,03,10,8.60
2018,09,19,03,11,8.60
2018,09,19,03,12,8.60
2018,09,19,03,13,8.60
2018,09,19,03,14,8.60
2018,09,19,03,15,8.60
2018,09,19,03,16,8.60
2018,09,19,03,17,8.60
2018,09,19,03,18,8.60
2018,09,19,03,19,8.60
2018,09,19,03,20,8.60
2018,09,19,03,21,8.60
2018,09,19,03,22,8.60
2018,09,19,03,23,8.60
2018,09,19,03,24,8.60
2018,09,19,03,25,8.60
2018,09,19,03,26,8.60
2018,09,19,03,27,8.60
2018,09,19,03,28,8.60
2018,09,19,03,29,8.60
2018,09,19,03,30,8.60
2018,09,19,03,31,8.60
2018,09,19,03,32,8.60
2018,09,19,03,33,8.60
2018,09,19,03,34,8.60
2018,09,19,03,35,8.60
2018,09,19,03,36,8.60
2018,09,19,03,37,8.60
2018,09,19,03,38,8.60
2018,09,19,03,39,8.50
2018,09,19,03,40,8.50
2018,09,19,03,41,8.50
2018,09,19,03,42,8.50
2018,09,19,03,43,8.50
2018,09,19,03,44,8.50
2018,09,19,03,45,8.50
2018,09,19,03,46,8.50
2018,09,19,03,47,8.50
2018,09,19,03,48,8.50
2018,09,19,03,49,8.40
2018,09,19,03,50,8.40
2018,09,19,03,51,8.40
2018,09,19,03,52,8.40
2018,09,19,03,53,8.40
2018,09,19,03,54,8.40
2018,09,19,03,55,8.40
2018,09,19,03,56,8.40
2018,09,19,03,57,8.40
2018,09,19,03,58,8.40
2018,09,19,03,59,8.40
2018,09,19,04,00,8.40
2018,09,19,04,01,8.40
2018,09,19,04,02,8.40
2018,09,19,04,03,8.40
2018,09,19,04,04,8.40
2018,09,19,04,05,8.40
2018,09,19,04,06,8.40
2018,09,19,04,07,8.40
2018,09,19,04,08,8.40
2018,09,19,04,09,8.40
2018,09,19,04,10,8.40
2018,09,19,04,11,8.30
2018,09,19,04,12,8.30
2018,09,19,04,13,8.30
2018,09,19,04,14,8.30
2018,09,19,04,15,8.30
2018,09,19,04,16,8.30
2018,09,19,04,17,8.30
2018,09,19,04,18,8.30
2018,09,19,04,19,8.30
2018,09,19,04,20,8.30
2018,09,19,04,21,8.30
2018,09,19,04,22,8.30
2018,09,19,04,23,8.30
2018,09,19,04,24,8.30
2018,09,19,04,25,8.30
2018,09,19,04,26,8.20
2018,09,19,04,27,8.20
2018,09,19,04,28,8.20
2018,09,19,04,29,8.20
2018,09,19,04,30,8.20
2018,09,19,04,31,8.20
2018,09,19,04,32,8.20
2018,09,19,04,33,8.20
2018,09,19,04,34,8.20
2018,09,19,04,35,8.20
2018,09,19,04,36,8.20
2018,09,19,04,37,8.20
2018,09,19,04,38,8.20
2018,09,19,04,39,8.20
2018,09,19,04,40,8.20
2018,09,19,04,41,8.20
2018,09,19,04,42,8.20
2018,09,19,04,43,8.20
2018,09,19,04,44,8.20
2018,09,19,04,45,8.10
2018,09,19,04,46,8.10
2018,09,19,04,47,8.10
2018,09,19,04,48,8.10
2018,09,19,04,49,8.10
2018,09,19,04,50,8.10
2018,09,19,04,51,8.10
2018,09,19,04,52,8.10
2018,09,19,04,53,8.10
2018,09,19,04,54,8.10
2018,09,19,04,55,8.10
2018,09,19,04,56,8.10
2018,09,19,04,57,8.00
2018,09,19,04,58,8.00
2018,09,19,04,59,8.00
2018,09,19,05,00,8.00
2018,09,19,05,01,8.00
2018,09,19,05,02,8.00
2018,09,19,05,03,8.00
2018,09,19,05,04,8.00
2018,09,19,05,05,8.00
2018,09,19,05,06,7.90
2018,09,19,05,07,7.90
2018,09,19,05,08,7.90
2018,09,19,05,09,7.90
2018,09,19,05,10,7.90
2018,09,19,05,11,7.90
2018,09,19,05,12,7.90
2018,09,19,05,13,7.90
2018,09,19,05,14,7.90
2018,09,19,05,15,7.90
2018,09,19,05,16,7.90
2018,09,19,05,17,7.90
2018,09,19,05,18,7.90
2018,09,19,05,19,7.90
2018,09,19,05,20,7.80
2018,09,19,05,21,7.80
2018,09,19,05,22,7.80
2018,09,19,05,23,7.80
2018,09,19,05,24,7.80
2018,09,19,05,25,7.80
2018,09,19,05,26,7.80
2018,09,19,05,27,7.80
2018,09,19,05,28,7.80
2018,09,19,05,29,7.80
2018,09,19,05,30,7.80
2018,09,19,05,31,7.80
2018,09,19,05,32,7.80
2018,09,19,05,33,7.80
2018,09,19,05,34,7.80
2018,09,19,05,35,7.70
2018,09,19,05,36,7.70
2018,09,19,05,37,7.70
2018,09,19,05,38,7.70
2018,09,19,05,39,7.70
2018,09,19,05,40,7.70
2018,09,19,05,41,7.70
2018,09,19,05,42,7.70
2018,09,19,05,43,7.70
2018,09,19,05,44,7.70
2018,09,19,05,45,7.70
2018,09,19,05,46,7.70
2018,09,19,05,47,7.70
2018,09,19,05,48,7.70
2018,09,19,05,49,7.70
2018,09,19,05,50,7.70
2018,09,19,05,51,7.70
2018,09,19,05,52,7.70
2018,09,19,05,53,7.70
2018,09,19,05,54,7.70
2018,09,19,05,55,7.70
2018,09,19,05,56,7.70
2018,09,19,05,57,7.70
2018,09,19,05,58,7.70
2018,09,19,05,59,7.70
2018,09,19,06,00,7.70
2018,09,19,06,01,7.70
2018,09,19,06,02,7.70
2018,09,19,06,03,7.70
2018,09,19,06,04,7.70
2018,09,19,06,05,7.70
2018,09,19,06,06,7.60
2018,09,19,06,07,7.60
2018,09,19,06,08,7.60
2018,09,19,06,09,7.60
2018,09,19,06,10,7.60
2018,09,19,06,11,7.60
2018,09,19,06,12,7.60
2018,09,19,06,13,7.60
2018,09,19,06,14,7.60
2018,09,19,06,15,7.60
2018,09,19,06,16,7.60
2018,09,19,06,17,7.60
2018,09,19,06,18,7.60
2018,09,19,06,19,7.60
2018,09,19,06,20,7.60
2018,09,19,06,21,7.60
2018,09,19,06,22,7.60
2018,09,19,06,23,7.60
2018,09,19,06,24,7.60
2018,09,19,06,25,7.60
2018,09,19,06,26,7.60
2018,09,19,06,27,7.60
2018,09,19,06,28,7.60
2018,09,19,06,29,7.60
2018,09,19,06,30,7.60
2018,09,19,06,31,7.60
2018,09,19,06,32,7.60
2018,09,19,06,33,7.60
2018,09,19,06,34,7.60
2018,09,19,06,35,7.60
2018,09,19,06,36,7.60
2018,09,19,06,37,7.60
2018,09,19,06,38,7.60
2018,09,19,06,39,7.60
2018,09,19,06,40,7.60
2018,09,19,06,41,7.60
2018,09,19,06,42,7.60
2018,09,19,06,43,7.60
2018,09,19,06,44,7.60
2018,09,19,06,45,7.60
2018,09,19,06,46,7.60
2018,09,19,06,47,7.50
2018,09,19,06,48,7.50
2018,09,19,06,49,7.50
2018,09,19,06,50,7.50
2018,09,19,06,51,7.40
2018,09,19,06,52,7.40
2018,09,19,06,53,7.40
2018,09,19,06,54,7.40
2018,09,19,06,55,7.40
2018,09,19,06,56,7.40
2018,09,19,06,57,7.40
2018,09,19,06,58,7.40
2018,09,19,06,59,7.40
2018,09,19,07,00,7.40
2018,09,19,07,01,7.40
2018,09,19,07,02,7.40
2018,09,19,07,03,7.40
2018,09,19,07,04,7.40
2018,09,19,07,05,7.40
2018,09,19,07,06,7.40
2018,09,19,07,07,7.40
2018,09,19,07,08,7.40
2018,09,19,07,09,7.40
2018,09,19,07,10,7.40
2018,09,19,07,11,7.40
2018,09,19,07,12,7.40
2018,09,19,07,13,7.40
2018,09,19,07,14,7.40
2018,09,19,07,15,7.40
2018,09,19,07,16,7.40
2018,09,19,07,17,7.40
2018,09,19,07,18,7.40
2018,09,19,07,19,7.40
2018,09,19,07,20,7.40
2018,09,19,07,21,7.40
2018,09,19,07,22,7.40
2018,09,19,07,23,7.40
2018,09,19,07,24,7.40
2018,09,19,07,25,7.40
2018,09,19,07,26,7.40
2018,09,19,07,27,7.40
2018,09,19,07,28,7.40
2018,09,19,07,29,7.40
2018,09,19,07,30,7.40
2018,09,19,07,31,7.40
2018,09,19,07,32,7.40
2018,09,19,07,33,7.40
2018,09,19,07,34,7.40
2018,09,19,07,35,7.40
2018,09,19,07,36,7.40
2018,09,19,07,37,7.40
2018,09,19,07,38,7.40
2018,09,19,07,39,7.40
2018,09,19,07,40,7.40
2018,09,19,07,41,7.40
2018,09,19,07,42,7.40
2018,09,19,07,43,7.40
2018,09,19,07,44,7.40
2018,09,19,07,45,7.40
2018,09,19,07,46,7.50
2018,09,19,07,47,7.50
2018,09,19,07,48,7.50
2018,09,19,07,49,7.50
2018,09,19,07,50,7.50
2018,09,19,07,51,7.50
2018,09,19,07,52,7.50
2018,09,19,07,53,7.60
2018,09,19,07,54,7.60
2018,09,19,07,55,7.60
2018,09,19,07,56,7.60
2018,09,19,07,57,7.60
2018,09,19,07,58,7.60
2018,09,19,07,59,7.60
2018,09,19,08,00,7.60
2018,09,19,08,01,7.60
2018,09,19,08,02,7.60
2018,09,19,08,03,7.60
2018,09,19,08,04,7.60
2018,09,19,08,05,7.60
2018,09,19,08,06,7.60
2018,09,19,08,07,7.60
2018,09,19,08,08,7.60
2018,09,19,08,09,7.60
2018,09,19,08,10,7.60
2018,09,19,08,11,7.70
2018,09,19,08,12,7.70
2018,09,19,08,13,7.70
2018,09,19,08,14,7.70
2018,09,19,08,15,7.70
2018,09,19,08,16,7.70
2018,09,19,08,17,7.70
2018,09,19,08,18,7.70
2018,09,19,08,19,7.80
2018,09,19,08,20,7.80
2018,09,19,08,21,7.80
2018,09,19,08,22,7.80
2018,09,19,08,23,7.80
2018,09,19,08,24,7.80
2018,09,19,08,25,7.90
2018,09,19,08,26,7.90
2018,09,19,08,27,7.90
2018,09,19,08,28,7.90
2018,09,19,08,29,7.90
2018,09,19,08,30,8.00
2018,09,19,08,31,8.00
2018,09,19,08,32,8.10
2018,09,19,08,33,8.10
2018,09,19,08,34,8.10
2018,09,19,08,35,8.10
2018,09,19,08,36,8.20
2018,09,19,08,37,8.20
2018,09,19,08,38,8.20
2018,09,19,08,39,8.20
2018,09,19,08,40,8.30
2018,09,19,08,41,8.30
2018,09,19,08,42,8.30
2018,09,19,08,43,8.40
2018,09,19,08,44,8.40
2018,09,19,08,45,8.50
2018,09,19,08,46,8.50
2018,09,19,08,47,8.60
2018,09,19,08,48,8.60
2018,09,19,08,49,8.60
2018,09,19,08,50,8.70
2018,09,19,08,51,8.80
2018,09,19,08,52,8.80
2018,09,19,08,53,8.90
2018,09,19,08,54,9.00
2018,09,19,08,55,9.10
2018,09,19,08,56,9.20
2018,09,19,08,57,9.40
2018,09,19,08,58,9.50
2018,09,19,08,59,9.60
2018,09,19,09,00,9.80
2018,09,19,09,01,9.90
2018,09,19,09,02,10.00
2018,09,19,09,03,10.20
2018,09,19,09,04,10.30
2018,09,19,09,05,10.50
2018,09,19,09,06,10.60
2018,09,19,09,07,10.80
2018,09,19,09,08,10.90
2018,09,19,09,09,11.10
2018,09,19,09,10,11.30
2018,09,19,09,11,11.40
2018,09,19,09,12,11.60
2018,09,19,09,13,11.70
2018,09,19,09,14,11.90
2018,09,19,09,15,12.00
2018,09,19,09,16,12.20
2018,09,19,09,17,12.30
2018,09,19,09,18,12.40
2018,09,19,09,19,12.60
2018,09,19,09,20,12.70
2018,09,19,09,21,12.80
2018,09,19,09,22,13.00
2018,09,19,09,23,13.10
2018,09,19,09,24,13.20
2018,09,19,09,25,13.30
2018,09,19,09,26,13.40
2018,09,19,09,27,13.50
2018,09,19,09,28,13.60
2018,09,19,09,29,13.70
2018,09,19,09,30,13.80
2018,09,19,09,31,13.90
2018,09,19,09,32,14.00
2018,09,19,09,33,14.10
2018,09,19,09,34,14.20
2018,09,19,09,35,14.20
2018,09,19,09,36,14.20
2018,09,19,09,37,14.20
2018,09,19,09,38,14.30
2018,09,19,09,39,14.40
2018,09,19,09,40,14.50
2018,09,19,09,41,14.60
2018,09,19,09,42,14.70
2018,09,19,09,43,14.70
2018,09,19,09,44,14.80
2018,09,19,09,45,14.90
2018,09,19,09,46,14.90
2018,09,19,09,47,15.00
2018,09,19,09,48,15.10
2018,09,19,09,49,15.10
2018,09,19,09,50,15.20
2018,09,19,09,51,15.20
2018,09,19,09,52,15.20
2018,09,19,09,53,15.30
2018,09,19,09,54,15.30
2018,09,19,09,55,15.40
2018,09,19,09,56,15.40
2018,09,19,09,57,15.50
2018,09,19,09,58,15.60
2018,09,19,09,59,15.60
2018,09,19,10,00,15.70
2018,09,19,10,01,15.70
2018,09,19,10,02,15.70
2018,09,19,10,03,15.80
2018,09,19,10,04,15.80
2018,09,19,10,05,15.80
2018,09,19,10,06,15.80
2018,09,19,10,07,15.80
2018,09,19,10,08,15.80
2018,09,19,10,09,15.80
2018,09,19,10,10,15.70
2018,09,19,10,11,15.60
2018,09,19,10,12,15.50
2018,09,19,10,13,15.40
2018,09,19,10,14,15.40
2018,09,19,10,15,15.40
2018,09,19,10,16,15.40
2018,09,19,10,17,15.40
2018,09,19,10,18,15.40
2018,09,19,10,19,15.40
2018,09,19,10,20,15.50
2018,09,19,10,21,15.70
2018,09,19,10,22,15.70
2018,09,19,10,23,15.80
2018,09,19,10,24,15.80
2018,09,19,10,25,15.80
2018,09,19,10,26,15.70
2018,09,19,10,27,15.70
2018,09,19,10,28,15.70
2018,09,19,10,29,15.60
2018,09,19,10,30,15.60
2018,09,19,10,31,15.60
2018,09,19,10,32,15.60
2018,09,19,10,33,15.60
2018,09,19,10,34,15.70
2018,09,19,10,35,15.80
2018,09,19,10,36,15.90
2018,09,19,10,37,16.00
2018,09,19,10,38,16.10
2018,09,19,10,39,16.10
2018,09,19,10,40,16.00
2018,09,19,10,41,15.90
2018,09,19,10,42,15.80
2018,09,19,10,43,15.80
2018,09,19,10,44,15.90
2018,09,19,10,45,16.00
2018,09,19,10,46,16.10
2018,09,19,10,47,16.20
2018,09,19,10,48,16.30
2018,09,19,10,49,16.30
2018,09,19,10,50,16.40
2018,09,19,10,51,16.40
2018,09,19,10,52,16.40
2018,09,19,10,53,16.30
2018,09,19,10,54,16.30
2018,09,19,10,55,16.20
2018,09,19,10,56,16.20
2018,09,19,10,57,16.20
2018,09,19,10,58,16.10
2018,09,19,10,59,16.00
2018,09,19,11,00,16.00
2018,09,19,11,01,15.90
2018,09,19,11,02,16.00
2018,09,19,11,03,16.00
2018,09,19,11,04,16.10
2018,09,19,11,05,16.20
2018,09,19,11,06,16.30
2018,09,19,11,07,16.40
2018,09,19,11,08,16.40
2018,09,19,11,09,16.50
2018,09,19,11,10,16.50
2018,09,19,11,11,16.60
2018,09,19,11,12,16.70
2018,09,19,11,13,16.70
2018,09,19,11,14,16.70
2018,09,19,11,15,16.70
2018,09,19,11,16,16.70
2018,09,19,11,17,16.70
2018,09,19,11,18,16.70
2018,09,19,11,19,16.70
2018,09,19,11,20,16.70
2018,09,19,11,21,16.80
2018,09,19,11,22,16.80
2018,09,19,11,23,16.70
2018,09,19,11,24,16.70
2018,09,19,11,25,16.60
2018,09,19,11,26,16.60
2018,09,19,11,27,16.70
2018,09,19,11,28,16.80
2018,09,19,11,29,16.90
2018,09,19,11,30,16.90
2018,09,19,11,31,17.00
2018,09,19,11,32,17.10
2018,09,19,11,33,17.10
2018,09,19,11,34,17.10
2018,09,19,11,35,17.10
2018,09,19,11,36,17.00
2018,09,19,11,37,17.00
2018,09,19,11,38,17.00
2018,09,19,11,39,17.10
2018,09,19,11,40,17.20
2018,09,19,11,41,17.20
2018,09,19,11,42,17.30
2018,09,19,11,43,17.40
2018,09,19,11,44,17.40
2018,09,19,11,45,17.40
2018,09,19,11,46,17.40
2018,09,19,11,47,17.40
2018,09,19,11,48,17.40
2018,09,19,11,49,17.50
2018,09,19,11,50,17.60
2018,09,19,11,51,17.60
2018,09,19,11,52,17.70
2018,09,19,11,53,17.70
2018,09,19,11,54,17.80
2018,09,19,11,55,17.80
2018,09,19,11,56,17.70
2018,09,19,11,57,17.80
2018,09,19,11,58,17.80
2018,09,19,11,59,17.90
2018,09,19,12,00,17.90
2018,09,19,12,01,17.90
2018,09,19,12,02,18.00
2018,09,19,12,03,18.00
2018,09,19,12,04,18.10
2018,09,19,12,05,18.20
2018,09,19,12,06,18.20
2018,09,19,12,07,18.20
2018,09,19,12,08,18.20
2018,09,19,12,09,18.30
2018,09,19,12,10,18.40
2018,09,19,12,11,18.50
2018,09,19,12,12,18.60
2018,09,19,12,13,18.60
2018,09,19,12,14,18.60
2018,09,19,12,15,18.40
2018,09,19,12,16,18.30
2018,09,19,12,17,18.30
2018,09,19,12,18,18.30
2018,09,19,12,19,18.30
2018,09,19,12,20,18.20
2018,09,19,12,21,18.10
2018,09,19,12,22,18.00
2018,09,19,12,23,17.90
2018,09,19,12,24,17.80
2018,09,19,12,25,17.80
2018,09,19,12,26,17.70
2018,09,19,12,27,17.70
2018,09,19,12,28,17.70
2018,09,19,12,29,17.70
2018,09,19,12,30,17.70
2018,09,19,12,31,17.60
2018,09,19,12,32,17.60
2018,09,19,12,33,17.70
2018,09,19,12,34,17.80
2018,09,19,12,35,17.80
2018,09,19,12,36,17.90
2018,09,19,12,37,18.00
2018,09,19,12,38,18.10
2018,09,19,12,39,18.10
2018,09,19,12,40,18.10
2018,09,19,12,41,18.10
2018,09,19,12,42,18.10
2018,09,19,12,43,18.00
2018,09,19,12,44,18.00
2018,09,19,12,45,17.90
2018,09,19,12,46,17.80
2018,09,19,12,47,17.70
2018,09,19,12,48,17.60
2018,09,19,12,49,17.50
2018,09,19,12,50,17.50
2018,09,19,12,51,17.50
2018,09,19,12,52,17.50
2018,09,19,12,53,17.50
2018,09,19,12,54,17.60
2018,09,19,12,55,17.70
2018,09,19,12,56,17.70
2018,09,19,12,57,17.70
2018,09,19,12,58,17.70
2018,09,19,12,59,17.60
2018,09,19,13,00,17.60
2018,09,19,13,01,17.60
2018,09,19,13,02,17.60
2018,09,19,13,03,17.50
2018,09,19,13,04,17.50
2018,09,19,13,05,17.50
2018,09,19,13,06,17.50
2018,09,19,13,07,17.50
2018,09,19,13,08,17.40
2018,09,19,13,09,17.40
2018,09,19,13,10,17.30
2018,09,19,13,11,17.20
2018,09,19,13,12,17.20
2018,09,19,13,13,17.10
2018,09,19,13,14,17.00
2018,09,19,13,15,16.90
2018,09,19,13,16,16.80
2018,09,19,13,17,16.70
2018,09,19,13,18,16.60
2018,09,19,13,19,16.50
2018,09,19,13,20,16.30
2018,09,19,13,21,16.30
2018,09,19,13,22,16.20
2018,09,19,13,23,16.20
2018,09,19,13,24,16.20
2018,09,19,13,25,16.20
2018,09,19,13,26,16.20
2018,09,19,13,27,16.30
2018,09,19,13,28,16.30
2018,09,19,13,29,16.30
2018,09,19,13,30,16.20
2018,09,19,13,31,16.20
2018,09,19,13,32,16.20
2018,09,19,13,33,16.20
2018,09,19,13,34,16.30
2018,09,19,13,35,16.30
2018,09,19,13,36,16.30
2018,09,19,13,37,16.40
2018,09,19,13,38,16.50
2018,09,19,13,39,16.60
2018,09,19,13,40,16.70
2018,09,19,13,41,16.80
2018,09,19,13,42,16.80
2018,09,19,13,43,16.80
2018,09,19,13,44,16.80
2018,09,19,13,45,16.70
2018,09,19,13,46,16.70
2018,09,19,13,47,16.70
2018,09,19,13,48,16.80
2018,09,19,13,49,16.80
2018,09,19,13,50,16.80
2018,09,19,13,51,16.80
2018,09,19,13,52,16.80
2018,09,19,13,53,16.80
2018,09,19,13,54,16.90
2018,09,19,13,55,16.90
2018,09,19,13,56,17.00
2018,09,19,13,57,17.10
2018,09,19,13,58,17.10
2018,09,19,13,59,17.10
2018,09,19,14,00,17.10
2018,09,19,14,01,17.10
2018,09,19,14,02,17.10
2018,09,19,14,03,17.10
2018,09,19,14,04,17.20
2018,09,19,14,05,17.20
2018,09,19,14,06,17.20
2018,09,19,14,07,17.20
2018,09,19,14,08,17.20
2018,09,19,14,09,17.20
2018,09,19,14,10,17.10
2018,09,19,14,11,17.10
2018,09,19,14,12,17.00
2018,09,19,14,13,16.90
2018,09,19,14,14,16.80
2018,09,19,14,15,16.70
2018,09,19,14,16,16.70
2018,09,19,14,17,16.60
2018,09,19,14,18,16.50
2018,09,19,14,19,16.40
2018,09,19,14,20,16.40
2018,09,19,14,21,16.40
2018,09,19,14,22,16.30
2018,09,19,14,23,16.30
2018,09,19,14,24,16.40
2018,09,19,14,25,16.40
2018,09,19,14,26,16.40
2018,09,19,14,27,16.40
2018,09,19,14,28,16.40
2018,09,19,14,29,16.50
2018,09,19,14,30,16.60
2018,09,19,14,31,16.60
2018,09,19,14,32,16.70
2018,09,19,14,33,16.70
2018,09,19,14,34,16.80
2018,09,19,14,35,16.80
2018,09,19,14,36,16.80
2018,09,19,14,37,16.90
2018,09,19,14,38,16.90
2018,09,19,14,39,17.00
2018,09,19,14,40,17.00
2018,09,19,14,41,17.10
2018,09,19,14,42,17.10
2018,09,19,14,43,17.20
2018,09,19,14,44,17.30
2018,09,19,14,45,17.30
2018,09,19,14,46,17.40
2018,09,19,14,47,17.50
2018,09,19,14,48,17.60
2018,09,19,14,49,17.60
2018,09,19,14,50,17.70
2018,09,19,14,51,17.80
2018,09,19,14,52,17.80
2018,09,19,14,53,17.80
2018,09,19,14,54,17.90
2018,09,19,14,55,17.90
2018,09,19,14,56,17.90
2018,09,19,14,57,17.90
2018,09,19,14,58,17.90
2018,09,19,14,59,17.90
2018,09,19,15,00,17.90
2018,09,19,15,01,17.90
2018,09,19,15,02,17.90
2018,09,19,15,03,17.90
2018,09,19,15,04,17.90
2018,09,19,15,05,17.90
2018,09,19,15,06,17.90
2018,09,19,15,07,17.90
2018,09,19,15,08,17.90
2018,09,19,15,09,17.90
2018,09,19,15,10,17.90
2018,09,19,15,11,17.90
2018,09,19,15,12,17.80
2018,09,19,15,13,17.80
2018,09,19,15,14,17.70
2018,09,19,15,15,17.70
2018,09,19,15,16,17.60
2018,09,19,15,17,17.50
2018,09,19,15,18,17.40
2018,09,19,15,19,17.30
2018,09,19,15,20,17.30
2018,09,19,15,21,17.20
2018,09,19,15,22,17.10
2018,09,19,15,23,17.00
2018,09,19,15,24,17.00
2018,09,19,15,25,16.90
2018,09,19,15,26,16.90
2018,09,19,15,27,16.90
2018,09,19,15,28,16.80
2018,09,19,15,29,16.80
2018,09,19,15,30,16.70
2018,09,19,15,31,16.70
2018,09,19,15,32,16.70
2018,09,19,15,33,16.70
2018,09,19,15,34,16.70
2018,09,19,15,35,16.60
2018,09,19,15,36,16.60
2018,09,19,15,37,16.60
2018,09,19,15,38,16.60
2018,09,19,15,39,16.60
2018,09,19,15,40,16.60
2018,09,19,15,41,16.60
2018,09,19,15,42,16.60
2018,09,19,15,43,16.70
2018,09,19,15,44,16.70
2018,09,19,15,45,16.70
2018,09,19,15,46,16.70
2018,09,19,15,47,16.70
2018,09,19,15,48,16.70
2018,09,19,15,49,16.70
2018,09,19,15,50,16.70
2018,09,19,15,51,16.70
2018,09,19,15,52,16.80
2018,09,19,15,53,16.80
2018,09,19,15,54,16.80
2018,09,19,15,55,16.80
2018,09,19,15,56,16.90
2018,09,19,15,57,16.90
2018,09,19,15,58,16.90
2018,09,19,15,59,17.00
2018,09,19,16,00,17.00
2018,09,19,16,01,17.10
2018,09,19,16,02,17.10
2018,09,19,16,03,17.10
2018,09,19,16,04,17.20
2018,09,19,16,05,17.20
2018,09,19,16,06,17.20
2018,09,19,16,07,17.20
2018,09,19,16,08,17.10
2018,09,19,16,09,17.10
2018,09,19,16,10,17.10
2018,09,19,16,11,17.10
2018,09,19,16,12,17.10
2018,09,19,16,13,17.10
2018,09,19,16,14,17.10
2018,09,19,16,15,17.10
2018,09,19,16,16,17.10
2018,09,19,16,17,17.10
2018,09,19,16,18,17.10
2018,09,19,16,19,17.10
2018,09,19,16,20,17.10
2018,09,19,16,21,17.00
2018,09,19,16,22,17.10
2018,09,19,16,23,17.10
2018,09,19,16,24,17.10
2018,09,19,16,25,17.10
2018,09,19,16,26,17.10
2018,09,19,16,27,17.10
2018,09,19,16,28,17.00
2018,09,19,16,29,17.00
2018,09,19,16,30,17.00
2018,09,19,16,31,17.00
2018,09,19,16,32,17.00
2018,09,19,16,33,17.00
2018,09,19,16,34,16.90
2018,09,19,16,35,16.90
2018,09,19,16,36,16.90
2018,09,19,16,37,16.90
2018,09,19,16,38,16.90
2018,09,19,16,39,16.80
2018,09,19,16,40,16.80
2018,09,19,16,41,16.80
2018,09,19,16,42,16.80
2018,09,19,16,43,16.80
2018,09,19,16,44,16.70
2018,09,19,16,45,16.70
2018,09,19,16,46,16.70
2018,09,19,16,47,16.70
2018,09,19,16,48,16.70
2018,09,19,16,49,16.60
2018,09,19,16,50,16.60
2018,09,19,16,51,16.60
2018,09,19,16,52,16.60
2018,09,19,16,53,16.60
2018,09,19,16,54,16.60
2018,09,19,16,55,16.60
2018,09,19,16,56,16.50
2018,09,19,16,57,16.50
2018,09,19,16,58,16.50
2018,09,19,16,59,16.50
2018,09,19,17,00,16.40
2018,09,19,17,01,16.40
2018,09,19,17,02,16.40
2018,09,19,17,03,16.40
2018,09,19,17,04,16.40
2018,09,19,17,05,16.40
2018,09,19,17,06,16.30
2018,09,19,17,07,16.30
2018,09,19,17,08,16.30
2018,09,19,17,09,16.30
2018,09,19,17,10,16.30
2018,09,19,17,11,16.30
2018,09,19,17,12,16.30
2018,09,19,17,13,16.30
2018,09,19,17,14,16.30
2018,09,19,17,15,16.30
2018,09,19,17,16,16.30
2018,09,19,17,17,16.20
2018,09,19,17,18,16.20
2018,09,19,17,19,16.20
2018,09,19,17,20,16.20
2018,09,19,17,21,16.20
2018,09,19,17,22,16.20
2018,09,19,17,23,16.20
2018,09,19,17,24,16.10
2018,09,19,17,25,16.10
2018,09,19,17,26,16.20
2018,09,19,17,27,16.10
2018,09,19,17,28,16.20
2018,09,19,17,29,16.20
2018,09,19,17,30,16.20
2018,09,19,17,31,16.20
2018,09,19,17,32,16.20
2018,09,19,17,33,16.10
2018,09,19,17,34,16.10
2018,09,19,17,35,16.20
2018,09,19,17,36,16.20
2018,09,19,17,37,16.20
2018,09,19,17,38,16.20
2018,09,19,17,39,16.20
2018,09,19,17,40,16.20
2018,09,19,17,41,16.20
2018,09,19,17,42,16.20
2018,09,19,17,43,16.20